This is the latest recevied weather packets stored in our database for station/object CT1ETE-13. If no packets are shown the sender has not sent any weather packets the latest 10 day(s).
| Time | Temp. | Humidity | Pressure | Rain* | Wind** | Luminosity | Snow |
|---|---|---|---|---|---|---|---|
| 1787479415 | 22.22° C | 57% | 1013.3 hPa | 0 mm | - | - | - |
| 1787478509 | 21.67° C | 51% | 1013.5 hPa | 0 mm | - | - | - |
| 1787477608 | 21.67° C | 58% | 1013.3 hPa | 0 mm | - | - | - |
| 1787476706 | 21.67° C | 61% | 1013.1 hPa | 0 mm | - | - | - |
| 1787475807 | 21.11° C | 59% | 1013.2 hPa | 0 mm | - | - | - |
| 1787474907 | 20.56° C | 64% | 1013 hPa | 0 mm | - | - | - |
| 1787474013 | 20° C | 69% | 1012.8 hPa | 0 mm | - | - | - |
| 1787473107 | 18.89° C | 73% | 1012.9 hPa | 0 mm | - | - | - |
| 1787472206 | 18.89° C | 73% | 1012.8 hPa | 0 mm | - | - | - |
| 1787471304 | 18.89° C | 72% | 1012.9 hPa | 0 mm | - | - | - |
| 1787470405 | 18.89° C | 70% | 1012.7 hPa | 0 mm | - | - | - |
| 1787469505 | 18.89° C | 70% | 1012.5 hPa | 0 mm | - | - | - |
| 1787468604 | 18.33° C | 71% | 1012.5 hPa | 0 mm | - | - | - |
| 1787467704 | 18.33° C | 71% | 1012.5 hPa | 0 mm | - | - | - |
| 1787466864 | 17.78° C | 73% | 1012.3 hPa | 0 mm | - | - | - |
| 1787465904 | 17.78° C | 74% | 1012.1 hPa | 0 mm | - | - | - |
| 1787465064 | 17.22° C | 76% | 1012.3 hPa | 0 mm | - | - | - |
| 1787464104 | 17.22° C | 75% | 1012.5 hPa | 0 mm | - | - | - |
| 1787463262 | 17.78° C | 74% | 1012.7 hPa | 0 mm | - | - | - |
| 1787462301 | 17.78° C | 73% | 1012.4 hPa | 0 mm | - | - | - |
| 1787461400 | 17.78° C | 71% | 1011.9 hPa | 0 mm | - | - | - |
| 1787460498 | 18.33° C | 71% | 1011.9 hPa | 0 mm | - | - | - |
| 1787459598 | 18.33° C | 70% | 1011.9 hPa | 0 mm | - | - | - |
| 1787458756 | 18.33° C | 71% | 1011.8 hPa | 0 mm | - | - | - |
| 1787457794 | 18.33° C | 71% | 1011.6 hPa | 0 mm | - | - | - |
* Rain latest hour (hover to see other rain measurements)
** Current wind speed in m/s (hover to see current wind gust speed)